Погода Агзу

Погода Агзу : погода сейчас, прогноз погоды и архив. Всё, что Вы хотите узнать о погоде Агзу!

Хотите узнать прогноз погоды Агзу? Тогда Вам сюда: Погода Агзу

Поиск расширенной информации на нашем сайте:

Другие новости

Новости СМИ2

Главная страница сайта

Новости сайта

03.07.2017

Напоминаем, что на нашем специализированном сайте Метеоцентр.Азия вы можете получить высокодетализированные автоматические прогнозы погоды по пунктам России, СНГ и мира в авиационном формате (включающие направление и скорость ветра, видимость, явления погоды, количество и форму облачности, нижнюю и верхнюю границу облачности).


Погода Агзу - сегодня

Время (UTC), дата Ветер
(°,м/с) 
Видим.   Явления Облачность Т
(°С)
Тd
(°С)
f(%) Тe
(°С)
Pmin
(гПа)
dP
(гПа)
Po
(мм)
O2
(г/м3)
Тmin Tmax R s Состояние
почвы
03 23.07.17 140 (ЮВ) 20000 м    10/6 1000 м средняя, верхняя 
[Sc|Ac trans|Ci fib]
+26.1 +15 50 +35  1004.9  -2.7  740  269           
06 23.07.17 150 (ЮВ) н/о    н/о 
+24.5 +15.2 56 +34  1003.7  -1.3  739  270           
09 23.07.17 140 (ЮВ) 20000 м    8/4 1000 м средняя, верхняя 
[Sc|Ac trans|Cc]
+21.6 +13 58 +27  1003.1  -0.8  738  273    +26.4       
12 23.07.17 040 (СВ) н/о    н/о 
+17.8 +13.8 77 +26  1004  0.7  738  277           
15 23.07.17 тихо ()   20000 м    10/10 1000 м 
[Sc]
+15.1 +13.7 91 +22  1003.3  -0.8  738  279           
18 23.07.17 100 (В) н/о    н/о 
+14.3 +13.7 96 +23  1001.8  -1.6  737  279           
21 23.07.17 тихо ()   20000 м  {ливн. осадки}  9/9 200 м 
[Sc]
+14.7 +14.2 97 +22  1001.3  -0.4  736  279  +14.1      влажная 
00 24.07.17 тихо ()   н/о    н/о 
+16.9 +14.3 85 +25  1000.4  -0.8  736  276           
03 24.07.17 130 (ЮВ) 20000 м    10/5 1000 м кучево-дожд., верхняя 
[Cb cap|Ci sp]
+22.3 +14.4 61 +31  998.2  -1.8  734  271           
06 24.07.17 050 (СВ) н/о    н/о 
+18.2 +15.3 83 +30  997.1  -1.3  733  274           
09 24.07.17 140 (ЮВ) 20000 м    10/4 300 м кучево-дожд., средняя, верхняя 
[Cb cap|Ac trans|Cc]
+18.3 +16.2 88 +30  997.6  0.5  734  274    +23.3  0.3     
12 24.07.17 тихо ()   н/о    н/о 
+16.5 +15.8 96 +27  997.7  734  275           
15 24.07.17 тихо ()   20000 м    10/10 300 м 
[Sc]
+15.8 +15.3 97 +26  998.2  0.4  734  276           
18 24.07.17 тихо ()   н/о    н/о 
+14.9 +14.4 97 +23  998.2  734  277           
21 24.07.17 100 (В) 20000 м  {ливн. осадки}  9/9 300 м 
[Sc]
+15.1 +14.7 97 +25  998.4  0.2  734  277  +13.5    0.5    влажная 
00 25.07.17 190 (Ю) н/о    н/о 
+18.7 +15.2 80 +30  998.1  0.1  734  274           
03 25.07.17 300 (СЗ) 20000 м    9/9 1000 м кучево-дожд. 
[Cb cap]
+22.1 +12.1 53 +27  996.5  -1.3  733  271           
06 25.07.17 270 (З) н/о    н/о 
+18.8 +13.3 70 +26  998.5  1.7  734  274           
09 25.07.17 тихо ()   20000 м    8/5 1000 м верхняя 
[Sc|Ci fib]
+18.1 +12.7 71 +24  999.7  1.1  735  275    +23.9  0.7     
12 25.07.17 020 (С) н/о    н/о 
+12.7 +12.2 97 +19  1002.4  2.3  737  281           
15 25.07.17 тихо ()   20000 м    3/3 1000 м 
[Sc]
+10.2 +9.7 97 +11  1002.9  0.3  737  285           
18 25.07.17 тихо ()   н/о    н/о 
+9.6 +9.2 97 +10  1003.3  0.3  737  285           
21 25.07.17 190 (Ю) 20000 м    9/9 600 м кучево-дожд. 
[Cb cap]
+12.8 +12 95 +18  1005  739  282  +9.1        влажная 
00 26.07.17 250 (З) н/о    н/о 
+22.1 +14.4 62 +30  1004.6  0.2  739  273           
03 26.07.17 030 (СВ) 20000 м    9/9 1000 м 
[Sc]
+24.8 +13 48 +31  1004.9  0.4  739  271           
Время (UTC), дата Ветер
(°,м/с) 
Видим.   Явления Облачность Т
(°С)
Тd
(°С)
f(%) Тe
(°С)
Pmin
(гПа)
dP
(гПа)
Po
(мм)
O2
(г/м3)
Тmin Tmax R s Состояние
почвы

Для получения пояснительной информации подведите курсор к названию столбца.

ПОГОДА Агзу - архив

Всё, что Вы хотите узнать о погоде Агзу - удобно и подробно!

Выберите нужную дату (начиная с 1 января 2015* года) и нажмите кнопку "Найти".
Будут отображены архивные сводки погоды по пункту Агзу, начиная с указанной даты.


Отображать данные в формате CSV (для использования в таблицах Excel)


Внимание! Наш архив погоды предназначен исключительно для личного некоммерческого использования в познавательных целях. Если Вам необходимы официальные справки о состоянии погоды (для производственных, юридических, коммерческих и т.п. целей), обращайтесь в органы Росгидромета.

*Примечание: данная дата относится к архиву по метеостанциям СССР (Россия, СНГ, Балтия).
Архив по метеостанциям Зарубежной Европы и Азии (кроме Китая) хранится 10 дней, по другим регионам земного шара (Китай, Африка, Америка, Австралия, Океания) - 1 день.

Агзу - район местоположения метеостанции


Название, широта, долгота, высота метеостанции:
Агзу 47.6°ш. 138.4°д. 165 м над ур. моря [Российская Федерация]

Дополнительная информация

В oтличие oт бoльшинства пoгoдных сайтoв мы публикуем пoдрoбную метеoинфoрмацию в детальнoм прoфессиoнальнoм фoрмате.

Характеристики температуры и влажнoсти вoздуха измеряются на высoте 2 м в тени вдали oт зданий и деревьев.
Скoрoсть ветра измеряется на высoте 10 м (на урoвне рoста челoвека скoрoсть ветра ниже в 1.5-2 раза). Если метеoстанция нахoдится в гoрoде или в лесу, тo скoрoсть ветра занижена на 2-4 м/с пo сравнению с oткрытым местoм. Скoрoсть ветра над акватoриями крупных рек и oзёр, а также на вершинах хoлмoв на 2-5 м/с выше, чем в oбычных услoвиях.
Атмoсфернoе давление в разных тoчках местнoсти мoжет значительнo oтличаться oт давления на метеoстанции, в зависимoсти oт услoвий рельефа (при пoдъёме на 10 м давление пoнижается примернo на 1 мм рт.ст.).